Regional Weather Roundup
Issued by NWS

Home | Current Version | Previous Version | Text Only | Print | Product List | Glossary On
Versions: 1 2 3 4 5 6 7 8 9 10 11 12 13 14 15 16 17 18 19 20 21 22 23 24 25 26 27 28 29 30 31 32 33 34 35 36 37 38 39 40 41 42 43 44 45 46 47 48 49 50
000
ASUS43 KOAX 281102
RWRNE

WEATHER ROUNDUP FOR NEBRASKA
NATIONAL WEATHER SERVICE OMAHA NE
600 AM CDT SAT MAR 28 2015

NOTES: SATELLITE DATA IS BEING USED TO AUGMENT CLOUD COVER ABOVE
       12000 FEET.
       "FAIR" INDICATES FEW OR NO CLOUDS BELOW 12,000 FEET WITH NO
       SIGNIFICANT WEATHER AND/OR OBSTRUCTIONS TO VISIBILITY.

  * THESE STATIONS DO NOT REPORT WEATHER SUCH AS RAIN...SNOW OR FOG.

NEZ001>004-019>022-054>056-281200-
NEBRASKA PANHANDLE

CITY           SKY/WX    TMP DP  RH WIND       PRES   REMARKS
SCOTTSBLUFF    CLEAR     32  27  81 W7        29.99S WCI  26
ALLIANCE       CLEAR     30  27  88 CALM      29.97S
CHADRON        CLEAR     31  27  85 SW5       29.95S WCI  26
KIMBALL        CLEAR     37  27  68 W9        30.01S WCI  30
SIDNEY         CLEAR     35  27  72 NW9       30.00S WCI  28
$$

NEZ057>060-069>072-079>082-281200-
SOUTHWEST NEBRASKA

CITY           SKY/WX    TMP DP  RH WIND       PRES   REMARKS
NORTH PLATTE   CLEAR     29  27  92 SE3       29.97R
IMPERIAL         N/A     34  27  75 NW5       29.98R WCI  30
LEXINGTON      CLEAR     29  26  88 W6        29.98R WCI  23
MCCOOK         PTCLDY    36  31  82 W9        29.96R WCI  29
OGALLALA       CLEAR     33  30  91 W7        29.98S WCI  26
$$

NEZ005>010-023>029-035>040-094-281200-
NORTH CENTRAL NEBRASKA

CITY           SKY/WX    TMP DP  RH WIND       PRES   REMARKS
VALENTINE      CLEAR     28  25  88 CALM      29.97F
AINSWORTH      CLEAR     32  29  88 CALM      29.98S
BROKEN BOW     CLEAR     28  24  85 CALM      29.97S
O`NEILL        CLEAR     31  28  89 S6        30.00S WCI  25
ORD            MOCLDY    24  20  84 CALM      30.00R
THEDFORD       CLEAR     31  30  96 W3        29.98R
$$

NEZ041-046>049-061>064-073>077-083>087-281200-
SOUTH CENTRAL NEBRASKA

CITY           SKY/WX    TMP DP  RH WIND       PRES   REMARKS
GRAND ISLAND   CLEAR     29  23  78 E6        30.03R WCI  23
AURORA         PTCLDY    30  27  88 E5        30.03R WCI  26
HASTINGS       CLEAR     27  22  81 E5        30.01R WCI  22
HEBRON         PTCLDY    32  23  69 E6        30.03R WCI  26
HOLDREGE       CLEAR     28  24  84 NE7       29.98R WCI  21
KEARNEY *      CLEAR     27  21  80 E5        30.00S WCI  21
YORK           CLOUDY    32  27  80 SE8       30.05R WCI  25
$$

NEZ011>018-030>034-042>045-281200-
NORTHEAST NEBRASKA

CITY           SKY/WX    TMP DP  RH WIND       PRES   REMARKS
NORFOLK        CLEAR     28  23  81 SE7       30.05R WCI  21
ALBION         PTCLDY    30  24  80 SE6       30.03R WCI  24
BLAIR          MOCLDY    32  27  79 SE9       30.09S WCI  25
COLUMBUS *     CLOUDY    30  19  64 E7        30.08R WCI  23
FREMONT        CLEAR     32  26  78 E7        30.09R WCI  25
TEKAMAH        CLOUDY    33  26  75 SE12      30.11S WCI  24
WAYNE          CLEAR     26  22  84 E3        30.09S
$$

NEZ050>053-065>068-078-088>093-281200-
SOUTHEAST NEBRASKA

CITY           SKY/WX    TMP DP  RH WIND       PRES   REMARKS
LINCOLN        CLOUDY    34  24  67 SE8       30.09R WCI  27
OMAHA EPPLEY   MOCLDY    34  27  75 SE12      30.12R WCI  25
BEATRICE       CLOUDY    35  26  70 E6        30.05S WCI  30
FALLS CITY     CLOUDY    34  27  75 E12       30.10R WCI  25
NEBRASKA CITY  MOCLDY    32  27  83 SE8       30.10S WCI  25
PLATTSMOUTH    CLOUDY    32  27  80 E9        30.10S WCI  24
$$

NEZ044-045-051>053-067-281200-
OMAHA AREA

CITY           SKY/WX    TMP DP  RH WIND       PRES   REMARKS
OMAHA EPPLEY   MOCLDY    34  27  75 SE12      30.12R WCI  25
BLAIR          MOCLDY    32  27  79 SE9       30.09S WCI  25
FREMONT        CLEAR     32  26  78 E7        30.09R WCI  25
MILLARD        PTCLDY    33  27  77 SE8       30.11R WCI  26
PLATTSMOUTH    CLOUDY    32  27  80 E9        30.10S WCI  24
WAHOO          FAIR      31  26  79 E10       30.09R WCI  23
$$



USA.gov is the U.S. government's official web portal to all federal, state and local government web resources and services.